This demonstration page uses our WeatherBlox Daily Observations layout. Learn more.

Left ArrowRight Arrow

39.08367, -84.50855

Hourly Observations for January 29, 2022

Temp ( °F °C ) Dew Point ( °F °C ) Humidity (%) Winds ( mph kmh ) Pressure ( in mb ) Visibility ( mi km ) Precip ( " mm )
12:53 am 00:53 Clear 12 -11.1 6 -14.4 77 77 N 6 9 30.31 1027 10 16 0.00 0.00
1:53 am 01:53 Mostly Cloudy 11 -11.7 5 -15 77 77 N 5 7 30.30 1026 10 16 0.00 0.00
2:53 am 02:53 Mostly Cloudy 10 -12.2 6 -14.4 84 84 Calm 30.30 1026 10 16 0.00 0.00
3:09 am 03:09 Mostly Cloudy 10 -12.2 6 -14.4 84 84 NNW 5 7 30.35 1028 10 16 0.00 0.00
3:53 am 03:53 Cloudy 11 -11.7 7 -13.9 84 84 Calm 30.31 1027 10 16 0.00 0.00
4:45 am 04:45 Partly Cloudy 6 -14.4 4 -15.6 91 91 Calm 30.35 1028 10 16 0.00 0.00
4:53 am 04:53 Mostly Clear 6 -14.4 5 -15 95 95 Calm 30.31 1027 9 14 0.00 0.00
5:53 am 05:53 Clear 0 -17.8 -4 -20 83 83 NE 3 6 30.33 1027 9 14 0.00 0.00
6:53 am 06:53 Clear 2 -16.7 -1 -18.3 88 88 Calm 30.34 1027 9 14 0.00 0.00
7:53 am 07:53 Sunny 2 -16.7 -1 -18.3 88 88 Calm 30.35 1028 8 13 0.00 0.00
8:53 am 08:53 Sunny 3 -16.1 2 -16.7 95 95 Calm 30.36 1028 7 11 0.00 0.00
9:53 am 09:53 Mostly Cloudy 5 -15 2 -16.7 87 87 Calm 30.36 1028 7 11 0.00 0.00
10:53 am 10:53 Sunny 14 -10 9 -12.8 80 80 Calm 30.35 1028 10 16 0.00 0.00
11:53 am 11:53 Mostly Sunny 18 -7.8 8 -13.3 65 65 Calm 30.33 1027 10 16 0.00 0.00
12:53 pm 12:53 Mostly Sunny 19 -7.2 6 -14.4 57 57 Calm 30.29 1026 10 16 0.00 0.00
1:53 pm 13:53 Cloudy 21 -6.1 6 -14.4 52 52 Calm 30.26 1025 10 16 0.00 0.00
2:53 pm 14:53 Partly Cloudy 22 -5.6 7 -13.9 52 52 S 6 9 30.22 1024 10 16 0.00 0.00
3:53 pm 15:53 Partly Cloudy 23 -5 9 -12.8 55 55 SSW 8 13 30.20 1023 10 16 0.00 0.00
4:53 pm 16:53 Cloudy 23 -5 11 -11.7 60 60 SSW 7 11 30.18 1022 10 16 0.00 0.00
5:53 pm 17:53 Cloudy 22 -5.6 10 -12.2 60 60 SSW 7 11 30.18 1022 10 16 0.00 0.00
6:53 pm 18:53 Cloudy 23 -5 10 -12.2 57 57 S 8 13 30.16 1021 10 16 0.00 0.00
7:53 pm 19:53 Mostly Cloudy 22 -5.6 12 -11.1 66 66 SSW 9 15 30.14 1021 10 16 0.00 0.00
8:53 pm 20:53 Partly Cloudy 19 -7.2 10 -12.2 68 68 S 6 9 30.14 1021 10 16 0.00 0.00
9:53 pm 21:53 Mostly Clear 18 -7.8 11 -11.7 74 74 S 8 13 30.12 1020 10 16 0.00 0.00
10:53 pm 22:53 Clear 16 -8.9 10 -12.2 77 77 SSW 5 7 30.11 1020 10 16 0.00 0.00
11:53 pm 23:53 Partly Cloudy 18 -7.8 11 -11.7 74 74 Calm 30.09 1019 10 16 0.00 0.00

Powered by AerisWeather